SCP
0 0 0 0 0 0 0 0 0 0 0 0 0 0 0 0 0 0 0 0 0 0 0 0 0 0 0 0 0 0 0 0 0 0 0 0 0 0 0 0 0 0 0 0
0 0 0 0 0 0 0 0 0 0 0 0 0 0 0 0 0 0 0 0 0 0 0 0 0 0 0 0 0 0 0 0 0 0 0 0 0 0 0 0 0 0 0 0
0 0 0 0 0 0 0 0 0 0 0 0 0 0 0 0 0 0 0 0 0 0 0 0 0 0 0 0 0 0 0 0 0 0 0 0 0 0 0 0 0 0 0 0
0 0 0 0 0 0 0 0 0 0 0 0 0 0 0 0 0 0 0 0 0 0 0 0 0 0 0 0 0 0 0 0 0 0 0 0 0 0 0 0 0 0 0 0
0 0 0 0 0 0 0 0 0 0 0 0 0 0 0 0 0 0 0 0 0 0 0 0 0 0 0 0 0 0 0 0 0 0 0 0 0 0 0 0 0 0 0 0
0 0 0 0 0 0 0 0 0 0 0 0 0 0 0 0 0 0 0 0 0 0 0 0 0 0 0 0 0 0 0 0 0 0 0 0 0 0 0 0 0 0 0 0
0 0 0 0 0 0 0 0 0 0 0 0 0 0 0 0 0 0 0 0 0 0 0 0 0 0 0 0 0 0 0 0 0 0 0 0 0 0 0 0 0 0 0 0
0 0 0 0 0 0 0 0 0 0 0 0 0 0 0 0 0 0 0 0 0 0 0 0 0 0 0 0 0 0 0 0 0 0 0 0 0 0 0 0 0 0 0 0
0 0 0 0 0 0 0 0 0 0 0 0 0 0 0 0 0 0 0 0 0 0 0 0 0 0 0 0 0 0 0 0 0 0 0 0 0 0 0 0 0 0 0 0
0 0 0 0 0 0 0 0 0 0 0 0 0 0 0 0 0 0 0 0 0 0 0 0 0 0 0 0 0 0 0 0 0 0 0 0 0 0 0 0 0 0 0 0
0 0 0 0 0 0 0 0 0 0 0 0 0 0 0 0 0 0 0 0 0 0 0 0 0 0 0 0 0 0 0 0 0 0 0 0 0 0 0 0 0 0 0 0
0 0 0 0 0 0 0 0 0 0 0 0 0 0 0 0 0 0 0 0 0 0 0 0 0 0 0 0 0 0 0 0 0 0 0 0 0 0 0 0 0 0 0 0
0 0 0 0 0 0 0 0 0 0 0 0 0 0 0 0 0 0 0 0 0 0 0 0 0 0 0 0 0 0 0 0 0 0 0 0 0 0 0 0 0 0 0 0
0 0 0 0 0 0 0 0 0 0 0 0 0 0 0 0 0 0 0 0 0 0 0 0 0 0 0 0 0 0 0 0 0 0 0 0 0 0 0 0 0 0 0 0
0 0 0 0 0 0 0 0 0 0 0 0 0 0 0 0 0 0 0 0 0 0 0 0 0 0 0 0 0 0 0 0 0 0 0 0 0 0 0 0 0 0 0 0
0 0 0 0 0 0 0 0 0 0 0 0 0 0 0 0 0 0 0 0 0 0 0 0 0 0 0 0 0 0 0 0 0 0 0 0 0 0 0 0 0 0 0 0
0 0 0 0 0 0 0 0 0 0 0 0 0 0 0 0 0 0 0 0 0 0 0 0 0 0 0 0 0 0 0 0 0 0 0 0 0 0 0 0 0 0 0 0
0 0 0 0 0 0 0 0 0 0 0 0 0 0 0 0 0 0 0 0 0 0 0 0 0 0 0 0 0 0 0 0 0 0 0 0 0 0 0 0 0 0 0 0
0 0 0 0 0 0 0 0 0 0 0 0 0 0 0 0 0 0 0 0 0 0 0 0 0 0 0 0 0 0 0 0 0 0 0 0 0 0 0 0 0 0 0 0
0 0 0 0 0 0 0 0 0 0 0 0 0 0 0 0 0 0 0 0 0 0 0 0 0 0 0 0 0 0 0 0 0 0 0 0 0 0 0 0 0 0 0 0
0 0 0 0 0 0 0 0 0 0 0 0 0 0 0 0 0 0 0 0 0 0 0 0 0 0 0 0 0 0 0 0 0 0 0 0 0 0 0 0 0 0 0 0
0 0 0 0 0 0 0 0 0 0 0 0 0 0 0 0 0 0 0 0 0 0 0 0 0 0 0 0 0 0 0 0 0 0 0 0 0 0 0 0 0 0 0 0
0 0 0 0 0 0 0 0 0 0 0 0 0 0 0 0 0 0 0 0 0 0 0 0 0 0 0 0 0 0 0 0 0 0 0 0 0 0 0 0 0 0 0 0
0 0 0 0 0 0 0 0 0 0 0 0 0 0 0 0 0 0 0 0 0 0 0 0 0 0 0 0 0 0 0 0 0 0 0 0 0 0 0 0 0 0 0 0
0 0 0 0 0 0 0 0 0 0 0 0 0 0 0 0 0 0 0 0 0 0 0 0 0 0 0 0 0 0 0 0 0 0 0 0 0 0 0 0 0 0 0 0
0 0 0 0 0 0 0 0 0 0 0 0 0 0 0 0 0 0 0 0 0 0 0 0 0 0 0 0 0 0 0 0 0 0 0 0 0 0 0 0 0 0 0 0
0 0 0 0 0 0 0 0 0 0 0 0 0 0 0 0 0 0 0 0 0 0 0 0 0 0 0 0 0 0 0 0 0 0 0 0 0 0 0 0 0 0 0 0
Wind_Speed
4 3 1 1 3 4 5 3 3 1 2 2 1 2 4 5 7 8 8 9 8 8 8 8 8 8 9 9 9 9 9 10 10 9 10 10 10 10 10 10 9 9 9 9
4 3 3 6 6 6 6 5 4 4 4 3 2 3 4 4 5 7 8 8 8 7 7 7 7 8 9 9 9 9 9 10 9 9 9 10 10 10 10 10 10 9 9 9
2 2 6 8 9 11 7 7 7 7 4 5 4 3 3 4 5 6 7 7 7 7 6 6 6 7 7 8 8 8 9 9 9 9 9 9 9 10 9 9 9 9 9 9
2 4 5 4 3 7 8 8 9 6 5 6 5 3 4 4 5 5 5 6 6 6 5 4 5 5 5 6 7 8 9 9 9 9 9 9 9 9 9 8 8 8 8 8
3 5 5 3 6 8 8 8 12 12 9 8 5 5 5 3 2 4 5 5 5 5 4 4 4 4 5 6 7 8 8 8 8 9 8 9 9 9 8 8 7 7 7 8
4 5 3 2 7 8 6 7 11 14 12 11 9 6 4 3 1 2 3 4 4 3 3 3 3 3 3 5 6 7 7 7 8 8 8 8 9 8 7 6 6 6 7 7
7 6 5 5 10 10 7 1 11 15 14 13 11 4 5 3 1 1 2 2 3 2 2 3 3 2 3 4 6 6 5 6 6 7 7 8 7 7 7 6 6 7 7 7
6 6 3 11 12 11 4 4 10 14 14 13 10 6 4 4 2 1 1 1 2 2 2 2 2 2 2 4 4 4 4 4 5 6 6 6 7 7 7 7 6 7 7 7
7 4 3 14 10 7 4 7 9 13 13 13 11 9 7 5 4 2 1 0 1 1 1 1 1 1 2 3 3 2 3 3 4 5 5 6 6 7 6 6 6 6 6 6
8 9 8 13 12 8 8 8 9 12 14 14 12 11 9 7 5 4 3 1 1 1 0 2 2 1 1 3 3 3 2 2 2 3 4 5 4 5 5 6 6 6 6 6
9 8 6 11 16 15 12 10 10 12 14 14 13 11 10 8 7 5 4 3 2 1 0 1 1 2 2 3 4 3 2 2 1 2 2 3 3 4 5 6 6 6 6 5
7 6 7 5 10 18 16 14 14 15 15 14 13 12 11 9 7 6 5 4 4 3 2 2 2 2 3 3 4 3 2 1 1 1 1 1 1 2 2 2 4 6 8 7
5 1 5 1 4 14 18 17 16 16 16 15 14 12 11 9 8 7 7 6 5 4 4 3 3 2 3 3 4 3 2 2 1 1 0 0 1 2 2 4 4 3 6 8
10 6 6 7 7 12 16 17 16 16 16 15 14 13 11 10 9 9 8 7 6 5 5 4 4 3 3 3 5 5 3 2 2 2 1 1 1 1 2 2 2 3 4 6
13 14 10 4 6 10 14 15 16 17 17 16 14 14 13 12 11 10 9 7 7 6 6 6 5 4 4 4 5 5 4 3 3 2 2 2 1 1 0 1 1 1 2 4
8 12 12 11 10 12 15 18 18 18 18 17 16 15 15 13 11 10 9 9 8 8 7 6 6 5 4 5 5 4 4 3 3 4 3 3 2 2 1 0 0 1 1 2
9 10 13 16 15 16 18 19 19 18 18 18 17 16 15 13 12 11 10 10 9 8 7 7 6 5 5 6 5 4 4 5 7 5 4 3 3 3 2 2 1 1 1 2
15 15 13 14 15 16 18 18 18 19 18 18 17 16 16 16 15 13 12 11 10 9 9 8 7 7 6 6 5 4 4 4 5 5 4 4 4 4 3 3 3 3 2 4
16 17 16 16 15 15 16 17 18 18 17 17 18 18 17 16 15 14 12 12 12 11 10 9 8 8 8 7 5 5 5 5 5 5 5 4 5 5 4 4 4 4 3 4
16 15 16 16 15 14 14 14 16 16 17 17 18 18 17 16 15 14 13 12 10 8 7 8 10 10 9 8 7 6 6 6 5 5 5 5 6 6 5 5 5 5 5 5
17 15 14 14 14 14 13 13 14 15 16 17 18 18 17 16 15 13 12 11 11 10 8 8 8 7 7 6 9 7 6 6 6 5 5 5 6 6 6 6 6 6 6 5
18 15 13 12 12 12 11 11 12 14 15 16 17 17 16 16 15 14 14 10 8 10 9 8 8 8 8 8 7 7 7 7 6 5 5 5 6 6 6 6 6 6 6 6
17 16 14 11 11 10 9 9 11 12 14 15 16 17 16 13 11 11 11 10 8 11 9 8 9 11 12 9 8 8 8 8 7 6 6 6 6 6 6 7 6 6 6 6
19 17 15 12 9 7 7 7 8 8 10 11 12 13 13 11 10 9 8 8 10 12 9 9 12 13 13 9 8 8 8 8 7 7 6 6 6 6 6 6 6 6 7 8
18 17 16 15 10 7 6 4 4 5 6 6 8 9 9 8 8 7 8 8 10 11 9 10 14 14 11 9 9 9 8 8 7 6 6 6 6 6 7 6 6 6 6 7
15 14 13 13 11 9 8 5 3 1 2 3 3 4 5 5 6 5 5 7 10 10 8 7 9 11 10 10 9 9 9 8 8 8 8 7 8 8 7 7 9 7 7 7
12 11 10 11 11 11 10 8 6 5 3 1 0 1 2 3 4 5 6 5 6 7 7 7 7 8 9 9 9 9 9 8 8 8 8 8 7 7 7 9 7 7 6 7
Wind_Direction
91 109 190 238 216 217 243 278 281 164 207 196 208 308 327 331 340 351 0 3 6 8 12 15 17 19 22 21 20 22 28 31 30 30 32 34 35 36 38 37 39 37 40 38
171 190 243 253 230 221 229 232 231 218 220 191 213 254 285 323 344 352 358 1 3 9 13 14 17 18 19 19 22 25 30 31 29 31 33 31 32 34 34 35 36 37 36 35
200 189 257 249 218 208 211 211 212 216 192 174 205 235 287 320 333 346 353 355 359 6 12 15 19 17 20 18 21 29 33 33 30 31 32 29 31 33 31 34 34 34 32 30
267 237 256 82 107 199 217 221 216 221 189 194 211 248 271 282 306 331 350 350 356 0 9 13 25 26 25 25 29 35 36 34 31 29 31 30 31 30 27 30 32 29 27 25
266 276 274 182 184 191 212 233 210 210 203 199 204 236 215 204 284 319 334 335 339 344 349 0 20 15 19 34 40 40 35 32 31 30 30 29 29 28 25 26 29 29 29 24
248 275 269 121 151 172 208 244 193 197 196 190 196 215 151 143 242 308 327 332 337 337 341 8 24 8 15 36 43 44 35 32 33 32 30 28 26 24 24 26 25 28 36 32
243 261 266 123 146 168 213 15 162 184 188 187 199 194 111 146 207 289 322 333 327 329 2 15 9 352 18 42 51 50 43 39 36 35 36 30 24 24 24 27 27 29 38 39
216 236 246 144 164 201 227 107 168 180 184 186 190 176 173 194 203 230 274 347 337 337 26 30 4 343 52 64 70 71 63 54 46 39 35 33 32 28 27 24 30 33 35 38
226 256 60 177 197 208 209 186 180 181 182 183 186 189 195 199 200 203 225 259 348 341 20 81 74 7 53 100 125 122 96 71 57 55 47 37 33 31 28 24 25 28 28 27
253 253 227 210 219 213 211 205 186 184 181 185 189 191 193 196 196 194 196 184 234 250 181 94 81 80 79 132 166 171 131 96 73 59 54 49 36 30 30 22 20 22 22 21
248 258 233 223 218 212 206 204 190 187 186 189 192 192 192 194 194 192 188 188 208 224 142 123 128 120 127 164 184 186 159 142 105 69 52 42 52 35 24 43 24 7 11 16
241 232 216 213 204 202 200 200 194 188 189 193 195 194 195 196 192 193 194 192 196 194 204 189 162 140 142 181 206 215 176 154 133 115 75 22 30 105 119 48 55 37 26 12
266 251 231 230 204 196 200 199 195 194 192 191 196 198 197 195 193 196 200 204 204 199 203 201 192 178 158 185 211 229 220 188 183 202 177 351 11 11 80 150 160 92 53 41
231 223 224 220 211 197 199 198 196 197 197 196 195 196 198 199 196 201 205 204 204 206 210 211 211 197 180 199 212 224 225 193 217 209 228 258 341 16 19 22 74 113 105 74
223 221 232 225 201 192 195 195 196 199 199 198 197 196 198 201 201 204 204 201 204 212 213 215 217 205 191 212 221 219 216 209 208 216 222 234 237 255 358 34 45 67 101 118
223 218 227 227 215 198 195 198 201 202 200 199 198 200 202 204 206 204 200 200 209 215 213 214 217 204 196 215 221 222 212 200 232 228 222 219 218 226 231 237 55 78 71 67
224 218 216 221 218 209 204 204 206 205 202 202 202 202 201 203 205 205 204 204 215 224 219 219 216 199 203 219 223 222 215 190 200 229 231 230 230 232 228 227 229 190 115 88
247 247 234 225 218 211 209 208 209 210 206 204 201 202 202 204 207 207 206 204 210 219 222 221 213 204 209 218 223 227 220 217 215 225 227 228 233 231 229 227 221 214 185 160
270 260 254 243 233 220 212 208 208 209 207 202 201 203 205 208 211 210 206 204 209 217 217 211 199 213 213 208 215 220 227 225 225 225 227 217 229 233 228 228 225 218 209 198
292 274 260 249 235 225 217 210 206 206 204 202 202 204 206 208 210 209 206 209 213 216 210 193 193 209 215 201 200 223 223 226 231 232 230 232 231 231 227 225 227 224 217 214
313 296 272 252 238 226 219 209 202 203 201 201 203 205 206 207 206 207 207 215 216 210 203 186 202 207 208 195 197 222 224 228 232 236 235 234 236 235 232 227 224 225 225 220
327 315 295 268 247 231 219 211 204 202 199 200 204 206 206 207 205 207 211 218 215 183 190 197 206 204 194 190 208 216 223 229 234 237 238 240 240 239 237 234 231 228 226 225
338 330 318 297 268 247 227 214 206 202 201 200 201 204 206 206 203 204 211 209 207 185 194 202 197 183 180 200 214 216 220 226 231 234 236 240 241 241 242 240 236 232 229 225
347 345 339 328 308 276 245 228 216 208 205 204 205 206 206 204 206 210 219 190 188 184 200 198 188 184 190 212 216 220 223 225 229 236 239 240 242 243 243 242 240 235 232 229
349 349 352 350 345 334 316 293 237 214 206 203 203 203 209 209 208 201 203 198 183 186 202 196 193 193 200 214 217 221 224 225 228 232 237 240 242 246 247 245 243 242 237 232
346 347 348 353 355 347 343 339 327 291 212 197 191 192 197 200 207 199 195 197 194 195 203 195 189 194 208 213 217 222 226 223 218 225 235 240 243 242 245 247 248 245 242 238
339 342 343 347 353 354 352 354 356 359 356 340 203 170 187 188 190 192 193 191 189 194 200 200 198 200 205 208 213 219 223 226 227 228 231 234 239 242 245 246 247 247 244 242